Wind_Speed
47 45 42 40 37 36 38 39 37 35 35 36 35 35 34 34 33 31 30 28 28 29 29 30 30 30 30 31 32 33 34 35 36 36 36 37 38 39 40 40 41 41 42
47 45 43 41 37 36 35 34 35 35 35 35 35 33 33 34 34 33 32 31 31 31 31 32 33 33 33 33 34 35 36 37 38 38 39 39 39 40 41 42 43 44 44
46 46 43 40 39 37 36 34 34 35 35 35 34 34 34 34 34 35 34 34 35 34 34 34 34 34 34 34 36 36 38 38 39 40 41 42 41 41 41 42 43 44 44
45 44 42 41 40 39 37 35 35 36 36 36 35 35 35 34 34 34 35 35 35 35 34 34 35 35 35 36 37 38 39 40 41 43 44 44 45 44 42 41 43 44 45
44 43 41 41 41 41 39 38 37 36 36 36 36 35 35 35 35 35 36 36 36 36 36 36 37 37 38 39 40 40 40 41 42 43 44 44 44 45 45 44 44 45 46
43 43 42 41 41 40 40 39 39 39 38 37 36 37 37 36 37 37 36 37 37 37 37 38 39 40 41 41 41 42 42 43 44 44 45 46 46 47 48 48 47 47 47
40 40 40 40 40 40 40 39 39 39 39 39 39 40 39 39 38 38 38 38 39 40 40 40 41 42 42 43 44 45 45 46 46 47 48 49 49 50 50 50 49 48 48
37 37 37 38 38 38 39 39 40 40 40 41 41 41 40 40 40 40 40 41 42 42 43 44 44 45 45 47 48 48 48 48 49 49 50 50 50 50 50 50 50 49 48
35 34 34 36 38 38 38 39 39 40 41 41 42 42 42 42 41 42 42 43 44 45 46 47 47 47 48 49 49 49 49 49 49 50 50 50 51 50 50 50 50 50 49
32 35 35 34 35 36 37 38 39 40 40 41 42 42 42 42 43 43 43 44 45 46 46 47 48 48 49 50 50 51 51 51 50 51 51 51 51 51 51 51 51 51 50
30 32 33 34 34 35 36 37 38 39 40 41 41 42 43 44 44 45 45 46 47 47 48 48 49 49 49 50 50 51 51 51 52 51 51 52 52 52 51 51 51 50 50
27 29 32 33 34 35 37 38 39 40 41 41 42 43 44 45 46 46 47 47 48 49 49 50 50 50 51 51 52 52 52 51 51 51 51 51 51 51 51 50 50 49 49
27 29 31 34 35 36 38 39 40 41 42 43 43 44 45 46 47 47 48 49 49 50 50 51 51 51 51 51 51 51 51 50 51 51 51 50 50 50 49 49 48 48 47
27 29 32 34 36 38 39 41 42 43 43 44 45 46 47 47 47 48 48 49 49 50 50 50 50 49 49 49 48 48 48 48 48 48 48 48 48 48 48 47 46 46 45
29 31 33 36 37 39 41 42 44 45 45 46 46 47 47 48 48 48 48 48 49 49 48 48 47 47 47 46 46 46 46 46 46 47 47 48 48 47 46 46 45 45 44
30 32 34 37 39 40 42 43 45 45 46 46 46 47 47 47 47 46 46 47 47 46 46 46 46 46 46 46 46 46 45 45 46 46 46 45 45 45 45 44 44 43 42
32 35 37 38 40 41 42 44 45 46 46 47 47 47 47 47 47 47 46 46 46 46 46 45 45 45 45 45 45 45 44 45 45 44 44 44 43 43 42 42 41 41 40
34 35 37 39 41 42 43 44 45 46 46 47 47 47 47 47 47 47 47 47 46 46 45 45 45 45 45 45 45 45 45 45 45 44 44 43 42 41 41 40 39 38 37
36 38 39 40 41 43 44 45 46 47 47 47 48 48 48 48 48 47 47 47 47 46 45 45 45 45 45 45 45 45 45 45 44 44 43 42 41 40 39 37 36 35 34
38 40 41 42 43 44 45 46 46 47 47 48 48 48 48 48 48 48 48 47 47 46 46 46 46 46 45 45 45 45 44 44 43 43 42 41 40 38 37 36 34 33 32
40 41 42 43 44 45 45 46 46 47 47 48 48 48 48 48 48 48 47 47 46 46 46 46 46 45 45 45 45 44 43 43 42 41 40 38 37 35 34 34 32 31 31
40 41 43 44 44 45 46 46 46 47 47 47 47 47 48 48 48 47 47 46 46 46 46 45 45 44 44 44 43 43 42 41 40 39 37 36 34 34 33 32 32 31 30
40 41 42 44 45 46 46 46 46 46 46 46 47 47 47 47 47 46 46 46 46 45 45 44 44 44 43 43 42 41 40 39 38 37 36 35 33 33 32 32 31 30 30
41 42 43 44 45 46 46 47 46 46 46 46 46 46 46 46 46 46 45 45 45 44 44 44 43 42 42 41 40 39 39 38 37 36 34 34 33 32 31 31 30 30 29
42 43 43 43 44 45 45 46 46 46 46 46 45 45 45 45 45 45 45 45 44 43 43 43 43 42 41 41 40 39 38 37 36 35 34 33 33 32 32 31 30 30 29
43 44 44 44 45 45 45 46 46 46 46 45 45 44 44 44 44 44 44 44 44 44 43 42 42 42 41 40 40 39 38 37 35 34 33 33 33 32 32 31 31 30 30
Wind_Direction
218 220 220 220 219 220 222 222 223 222 223 224 225 227 228 231 232 236 237 241 247 251 254 257 260 263 265 267 269 271 272 273 274 275 276 278 280 281 283 284 285 286 288
218 223 224 224 223 223 223 224 226 228 229 229 229 230 232 235 236 239 242 245 250 254 256 259 261 264 266 268 271 272 274 275 276 277 277 277 279 282 284 285 286 287 288
219 223 226 229 229 229 230 228 230 232 231 231 233 236 237 239 240 243 246 250 253 256 257 260 262 264 266 269 272 274 276 277 278 278 279 280 280 280 282 284 286 287 288
221 225 228 230 231 233 234 236 236 237 237 239 240 240 240 241 244 247 249 252 255 256 258 261 263 264 268 272 274 276 277 277 278 279 280 281 282 282 281 283 285 286 286
221 225 227 231 234 237 239 239 240 241 241 241 241 242 244 246 249 250 252 254 257 260 263 264 266 268 271 274 275 276 277 277 277 279 280 281 283 284 285 285 286 287 286
222 225 229 233 234 237 239 241 242 245 245 246 246 247 250 252 254 256 258 259 261 263 266 268 269 270 272 274 275 276 277 277 279 280 281 282 284 286 286 286 287 288 287
222 225 227 231 233 236 239 242 244 246 249 250 249 251 254 255 257 259 261 261 262 264 266 268 270 271 273 275 277 278 279 279 279 281 282 283 284 286 286 286 286 287 287
220 224 228 230 233 236 240 243 245 247 249 250 252 254 256 256 258 260 262 264 264 266 266 269 271 271 273 275 277 279 279 280 281 282 283 284 285 286 286 286 286 286 287
224 227 231 233 235 237 240 243 245 247 249 250 252 254 256 257 259 261 262 264 265 266 268 270 272 273 274 275 276 277 279 281 282 283 284 284 285 285 286 286 286 286 287
231 232 234 237 238 238 241 244 247 248 250 252 254 255 256 258 259 261 262 264 266 268 269 272 273 274 275 277 277 278 280 282 282 283 283 284 285 286 286 287 287 287 287
236 237 238 239 241 243 244 246 249 251 253 254 255 257 258 260 261 263 264 265 266 268 269 271 273 274 275 277 278 280 281 281 282 283 284 285 285 286 287 287 287 287 287
241 242 243 243 245 246 247 249 251 253 255 256 257 259 260 261 263 264 265 265 267 268 270 271 273 275 276 278 280 281 281 282 283 283 284 285 285 286 287 287 287 287 287
243 245 247 248 249 249 250 251 253 254 255 257 258 259 261 262 263 264 265 267 268 269 271 272 274 275 277 278 279 280 281 282 283 284 285 285 286 287 287 286 286 286 286
242 245 246 248 249 250 251 253 254 255 257 258 259 260 261 262 263 265 266 267 268 270 271 273 274 276 277 278 279 280 281 282 283 284 285 285 285 286 286 286 286 286 286
245 247 248 249 250 252 253 254 255 257 258 259 260 260 261 262 264 265 266 267 269 270 270 272 273 275 276 278 279 281 282 282 283 284 285 284 284 285 285 285 285 285 285
249 250 250 251 251 252 254 255 256 258 259 260 261 261 261 262 263 264 265 266 267 268 270 271 273 274 276 277 278 280 281 282 283 284 284 284 284 285 285 285 285 285 284
254 254 253 254 254 255 255 256 257 258 259 260 260 261 262 262 263 263 264 265 267 268 269 271 272 274 275 276 278 279 280 282 283 284 284 285 285 285 285 285 285 284 284
260 259 259 258 258 258 258 258 259 259 259 260 260 261 261 262 263 264 265 265 266 267 269 270 272 273 274 276 277 279 280 281 282 283 284 284 285 285 285 285 285 284 283
265 265 264 264 263 262 262 261 261 261 261 261 261 261 261 262 263 263 264 265 266 267 268 270 271 273 274 276 277 279 280 281 281 282 282 283 283 283 283 283 283 283 282
269 269 268 268 267 266 264 263 263 263 263 263 262 262 262 262 263 263 264 264 265 266 268 269 271 272 274 275 277 278 279 280 281 281 281 281 282 282 281 281 282 282 282
271 271 270 270 269 268 267 266 265 264 264 264 264 264 263 263 263 264 264 264 265 266 267 269 270 272 273 274 276 277 278 279 280 280 280 280 280 279 280 280 280 281 281
275 274 273 272 271 270 269 267 266 265 265 264 264 264 263 263 263 263 263 263 264 265 267 268 270 271 272 274 275 276 277 277 277 277 277 277 278 278 277 278 278 279 280
277 277 276 274 273 272 270 269 268 266 266 265 264 264 263 262 262 262 262 262 263 263 264 266 268 269 270 271 272 273 275 275 275 275 275 275 275 276 276 276 276 276 277
279 278 277 276 275 273 272 270 269 268 266 265 264 263 262 262 261 261 261 262 262 263 263 264 266 267 268 269 270 271 272 272 272 273 273 272 273 274 274 275 275 275 275
282 280 279 277 276 275 273 271 270 268 267 265 265 264 263 262 261 260 259 260 261 261 262 263 263 264 266 267 268 269 270 270 270 270 270 270 271 272 272 272 273 273 272
285 282 280 278 277 276 274 272 270 269 267 265 264 263 262 260 259 258 258 259 259 260 261 262 262 263 264 265 266 267 268 268 267 267 268 269 269 269 269 270 272 272 272
Height
5714 5722 5729 5736 5742 5749 5755 5761 5766 5771 5775 5779 5783 5787 5790 5794 5797 5800 5802 5804 5806 5808 5809 5811 5812 5813 5814 5814 5814 5815 5815 5815 5815 5815 5815 5814 5813 5812 5811 5809 5808 5806 5805
5709 5717 5724 5730 5736 5742 5748 5754 5759 5764 5768 5772 5777 5781 5784 5787 5790 5793 5795 5797 5799 5800 5802 5803 5804 5805 5805 5806 5807 5807 5807 5807 5806 5807 5807 5807 5807 5804 5803 5801 5799 5797 5796
5705 5712 5718 5724 5730 5736 5741 5746 5752 5756 5760 5765 5769 5773 5777 5780 5783 5785 5787 5789 5791 5792 5794 5795 5796 5797 5797 5798 5798 5798 5798 5798 5798 5797 5797 5797 5797 5797 5795 5792 5790 5788 5787
5701 5708 5714 5720 5725 5730 5735 5740 5745 5749 5753 5757 5761 5765 5768 5771 5774 5777 5779 5781 5782 5784 5786 5787 5788 5789 5789 5790 5790 5790 5790 5789 5789 5788 5787 5786 5786 5786 5786 5785 5782 5780 5778
5697 5703 5709 5715 5720 5725 5729 5734 5738 5742 5746 5749 5753 5757 5760 5763 5765 5768 5770 5772 5774 5775 5777 5778 5779 5780 5781 5781 5781 5781 5780 5780 5779 5778 5777 5776 5775 5774 5774 5775 5773 5770 5768
5692 5698 5704 5710 5714 5719 5724 5728 5732 5736 5739 5743 5746 5749 5752 5754 5757 5760 5762 5764 5765 5767 5768 5769 5770 5771 5772 5772 5771 5771 5771 5770 5769 5768 5767 5766 5765 5764 5763 5762 5761 5760 5758
5688 5694 5699 5704 5709 5713 5717 5721 5725 5728 5732 5735 5739 5741 5744 5746 5749 5751 5753 5755 5757 5758 5759 5760 5761 5761 5762 5762 5762 5761 5761 5760 5759 5758 5757 5756 5754 5753 5751 5750 5749 5748 5747
5684 5689 5694 5698 5702 5707 5710 5714 5717 5721 5724 5727 5730 5733 5735 5738 5740 5742 5744 5746 5747 5749 5750 5750 5751 5752 5752 5752 5752 5751 5751 5750 5749 5747 5746 5745 5743 5742 5740 5738 5737 5736 5735
5680 5684 5688 5692 5696 5700 5704 5707 5710 5713 5716 5719 5722 5724 5727 5729 5731 5733 5735 5737 5738 5739 5740 5740 5741 5741 5741 5741 5740 5740 5740 5739 5737 5736 5735 5733 5732 5730 5728 5726 5725 5724 5723
5676 5680 5684 5687 5690 5694 5697 5700 5703 5706 5708 5711 5713 5716 5718 5720 5722 5723 5725 5726 5727 5728 5729 5730 5730 5730 5730 5730 5729 5729 5728 5727 5726 5724 5723 5722 5720 5718 5716 5714 5712 5710 5709
5671 5675 5678 5681 5685 5687 5690 5693 5695 5698 5700 5702 5704 5706 5708 5710 5712 5713 5715 5716 5717 5718 5718 5718 5719 5719 5718 5718 5718 5717 5716 5715 5714 5712 5711 5710 5708 5706 5704 5702 5700 5698 5696
5667 5670 5673 5676 5678 5681 5683 5685 5687 5689 5691 5693 5695 5697 5699 5700 5701 5703 5704 5705 5705 5706 5706 5707 5707 5707 5707 5706 5706 5705 5704 5703 5701 5700 5699 5697 5695 5694 5692 5690 5688 5686 5684
5662 5664 5667 5669 5671 5673 5675 5677 5679 5680 5682 5684 5685 5687 5688 5689 5691 5692 5693 5693 5694 5694 5695 5695 5695 5695 5695 5694 5693 5693 5692 5691 5690 5688 5687 5685 5683 5681 5680 5678 5676 5674 5672
5655 5658 5660 5662 5663 5665 5667 5668 5670 5671 5673 5674 5675 5676 5677 5678 5680 5680 5681 5682 5682 5682 5683 5683 5683 5683 5682 5682 5681 5681 5680 5679 5677 5676 5674 5673 5671 5670 5668 5666 5664 5662 5660
5649 5650 5652 5653 5655 5656 5657 5658 5660 5661 5662 5663 5664 5665 5666 5667 5668 5669 5669 5670 5670 5671 5671 5671 5672 5671 5671 5671 5670 5669 5668 5667 5666 5664 5663 5661 5660 5658 5656 5654 5653 5651 5649
5642 5643 5644 5644 5645 5646 5647 5648 5649 5650 5651 5652 5653 5654 5655 5656 5656 5657 5658 5658 5659 5659 5660 5660 5660 5660 5659 5659 5658 5658 5657 5656 5654 5653 5651 5650 5648 5646 5645 5643 5641 5639 5638
5634 5634 5635 5635 5636 5636 5637 5638 5638 5639 5640 5640 5641 5642 5643 5644 5644 5645 5646 5647 5647 5648 5648 5648 5648 5648 5648 5648 5647 5646 5645 5644 5643 5642 5640 5638 5637 5635 5633 5631 5630 5628 5627
5625 5625 5625 5625 5625 5626 5626 5627 5627 5628 5628 5629 5629 5630 5631 5632 5633 5633 5634 5635 5635 5636 5636 5637 5637 5637 5636 5636 5636 5635 5634 5633 5632 5630 5629 5627 5626 5624 5623 5621 5619 5618 5617
5616 5615 5615 5615 5614 5614 5614 5615 5615 5615 5616 5616 5617 5618 5618 5619 5620 5621 5621 5622 5623 5623 5624 5624 5625 5625 5624 5624 5624 5623 5622 5621 5620 5619 5617 5616 5615 5613 5612 5611 5609 5608 5607
5606 5605 5604 5603 5603 5602 5602 5602 5602 5602 5603 5603 5604 5604 5605 5606 5607 5608 5608 5609 5610 5611 5611 5612 5612 5612 5612 5612 5612 5611 5610 5609 5608 5607 5606 5605 5604 5603 5602 5601 5600 5599 5598
5595 5594 5593 5592 5591 5590 5589 5589 5589 5589 5589 5590 5590 5591 5591 5592 5593 5594 5595 5596 5597 5598 5599 5599 5599 5600 5600 5599 5599 5599 5598 5598 5597 5596 5595 5594 5593 5593 5592 5591 5590 5590 5589
5584 5582 5581 5579 5578 5577 5576 5576 5575 5575 5575 5576 5576 5577 5577 5578 5579 5580 5581 5583 5584 5585 5586 5586 5587 5587 5587 5587 5587 5587 5587 5586 5586 5585 5584 5584 5583 5583 5582 5582 5581 5581 5580
5572 5570 5568 5566 5564 5563 5562 5562 5561 5561 5561 5562 5562 5562 5563 5564 5565 5566 5568 5569 5570 5572 5572 5573 5574 5575 5575 5575 5575 5575 5575 5575 5575 5574 5574 5574 5573 5573 5573 5572 5572 5572 5571
5560 5557 5555 5553 5551 5549 5548 5547 5547 5546 5547 5547 5547 5548 5549 5550 5551 5552 5554 5555 5557 5558 5559 5561 5561 5562 5563 5563 5563 5564 5564 5564 5564 5564 5563 5563 5563 5563 5563 5563 5563 5563 5563
5547 5544 5542 5539 5537 5535 5533 5532 5531 5531 5532 5532 5533 5534 5534 5536 5537 5538 5540 5542 5543 5544 5546 5548 5549 5550 5551 5551 5552 5552 5552 5552 5553 5553 5553 5553 5554 5554 5554 5554 5554 5554 5554
5534 5530 5527 5525 5522 5520 5519 5517 5516 5516 5516 5517 5518 5519 5520 5521 5523 5524 5526 5527 5529 5531 5533 5534 5536 5537 5538 5539 5540 5540 5541 5541 5542 5543 5543 5543 5543 5544 5544 5544 5545 5545 5545